Weather in Djida

Russia / Republic of Buryatia     50°40′59″N   106°10′48″E
temp.,
°C
wind,
m/s
gust,
m/s
humid.,
%
clouds,
%
prec.,
mm/h
press.,
hPa
HPBL,
m
6 march, sat
sat623:00−17ssw119244 0.0 102920
02:00−18wsw129334 0.0 102820
05:00−17nnw119073 0.0 102720
08:00−18sw119377 0.0 102920
11:00−11ssw338218 0.0 1029206
14:00−6ssw23769 0.0 1027268
17:00−4ssw238430 0.0 1026141
20:00−10s128163 0.0 102721
7 march, sun
sun723:00−12ssw118395 0.0 102621
02:00−13ssw128564 0.0 102621
05:00−15ssw12870 0.0 102420
08:00−15ssw118735 0.0 102520
11:00−9ssw227917 0.0 1022247
14:00−5sw23788 0.0 1020344
17:00−4sw12840 0.0 1018192
20:00−9sw22840 0.0 102021
8 march, mon
mon823:00−10sw228641 0.0 102021
02:00−11sw118871 0.0 102021
05:00−12sw119165 0.0 102021
08:00−12sw118939 0.0 102321
11:00−6ssw22842 0.0 1022197
14:00−3sw238118 0.0 1022297
17:00−2ne118412 0.0 1023187
20:00−7ne12846 0.0 102721
9 march, tue
tue923:00−9nne22890 0.0 102821
02:00−11n11930 0.0 102721
05:00−13sse11940 0.0 102621
08:00−13ssw12941 0.0 102521
11:00−7ssw239059 0.0 1021250
14:00−4sw238565 0.0 1018314
17:00−3nnw018472 0.0 1018210
20:00−6n229085 0.0 102121
10 march, wed
wed1023:00−8nnw119098 0.0 102421
02:00−9sw118974 0.0 102621
05:00−10wsw118437 0.0 102921
08:00−10nne117929 0.0 103121
11:00−5ne117518 0.0 1029249
14:00−2sse117111 0.0 1027450
17:00−2wnw00800 0.0 1025144
20:00−8se00840 0.0 102621